NFC9330 EDDK-LEBL

Flight info

Callsign NFC9330
Flight time N/A
Altitude 24000
Route NVO3B NVO Y868 MAPAD/N0466F360 Y868 NAVAK Z283 LNO DCT RASCA DCT FAMEN/N0464F350 DCT AHVEC UN857 DISAK DCT DIRMO DCT VALKU DCT ATSUP DCT MINSO DCT DEGOL DCT PPG DCT ALBER ALBER1Z
Aircraft B77L/H-SDE1E2E3FGHIJ2J3J4J5M1RWXY/LB1D1

Departure

Time 2026-04-25 17:30
Airport Cologne Bonn Airport (EDDK)

Arrival

Time N/A
Airport Josep Tarradellas Barcelona-El Prat Airport (LEBL)
Time Latitude Longitude Altitude Speed Heading
2026-04-25 16:58 50.87588 7.12774 237 ft 0 kts 227°
2026-04-25 17:16 50.87590 7.12776 237 ft 2 kts 227°
2026-04-25 17:16 50.87607 7.12806 237 ft 4 kts 227°
2026-04-25 17:16 50.87622 7.12832 237 ft 4 kts 230°
2026-04-25 17:17 50.87634 7.12867 237 ft 4 kts 268°
2026-04-25 17:17 50.87627 7.12903 237 ft 4 kts 316°
2026-04-25 17:17 50.87609 7.12930 237 ft 3 kts 317°
2026-04-25 17:17 50.87606 7.12934 237 ft 1 kts 317°
2026-04-25 17:20 50.87611 7.12928 237 ft 5 kts 317°
2026-04-25 17:20 50.87662 7.12854 237 ft 13 kts 317°
2026-04-25 17:21 50.87725 7.12764 237 ft 11 kts 319°
2026-04-25 17:21 50.87773 7.12818 237 ft 11 kts 99°
2026-04-25 17:21 50.87724 7.12916 237 ft 12 kts 136°
2026-04-25 17:21 50.87665 7.13002 237 ft 12 kts 137°
2026-04-25 17:22 50.87606 7.13087 237 ft 12 kts 138°
2026-04-25 17:22 50.87585 7.13117 237 ft 12 kts 137°
2026-04-25 17:22 50.87467 7.13289 237 ft 15 kts 137°
2026-04-25 17:22 50.87387 7.13401 237 ft 16 kts 147°
2026-04-25 17:23 50.87281 7.13426 238 ft 16 kts 160°
2026-04-25 17:23 50.87194 7.13531 241 ft 16 kts 138°
2026-04-25 17:23 50.87112 7.13648 244 ft 16 kts 137°
2026-04-25 17:23 50.87031 7.13766 247 ft 16 kts 137°
2026-04-25 17:24 50.86950 7.13883 252 ft 16 kts 137°
2026-04-25 17:24 50.86869 7.14001 259 ft 16 kts 137°
2026-04-25 17:24 50.86785 7.14112 259 ft 16 kts 153°
2026-04-25 17:24 50.86690 7.14200 263 ft 16 kts 139°
2026-04-25 17:25 50.86608 7.14317 266 ft 16 kts 137°
2026-04-25 17:25 50.86526 7.14436 269 ft 16 kts 137°
2026-04-25 17:25 50.86446 7.14556 274 ft 16 kts 137°
2026-04-25 17:25 50.86364 7.14674 279 ft 16 kts 137°
2026-04-25 17:26 50.86280 7.14796 283 ft 18 kts 137°
2026-04-25 17:26 50.86185 7.14932 289 ft 18 kts 138°
2026-04-25 17:26 50.86091 7.15068 297 ft 18 kts 137°
2026-04-25 17:26 50.85997 7.15204 300 ft 18 kts 137°
2026-04-25 17:27 50.85902 7.15340 303 ft 18 kts 137°
2026-04-25 17:27 50.85809 7.15475 305 ft 18 kts 137°
2026-04-25 17:27 50.85714 7.15613 309 ft 18 kts 137°
2026-04-25 17:27 50.85683 7.15657 310 ft 18 kts 137°
2026-04-25 17:28 50.85525 7.15885 312 ft 18 kts 137°
2026-04-25 17:28 50.85431 7.16022 314 ft 18 kts 137°
2026-04-25 17:28 50.85350 7.16176 313 ft 18 kts 115°
2026-04-25 17:28 50.85349 7.16371 314 ft 18 kts 66°
2026-04-25 17:29 50.85442 7.16502 314 ft 18 kts 21°
2026-04-25 17:29 50.85566 7.16489 314 ft 18 kts 329°
2026-04-25 17:29 50.85768 7.16210 313 ft 73 kts 317°
2026-04-25 17:29 50.86321 7.15408 296 ft 141 kts 317°
2026-04-25 17:30 50.87146 7.14206 422 ft 171 kts 316°
2026-04-25 17:30 50.88020 7.12913 1052 ft 172 kts 317°
2026-04-25 17:30 50.88895 7.11666 1957 ft 165 kts 318°
2026-04-25 17:30 50.89788 7.10395 2482 ft 179 kts 318°
2026-04-25 17:31 50.90728 7.09048 3078 ft 184 kts 315°
2026-04-25 17:31 50.91343 7.07242 3540 ft 198 kts 278°
2026-04-25 17:31 50.91136 7.04968 3802 ft 226 kts 255°
2026-04-25 17:31 50.90591 7.02473 4090 ft 251 kts 255°
2026-04-25 17:32 50.90015 6.99797 4802 ft 262 kts 254°
2026-04-25 17:32 50.89626 6.97983 5318 ft 265 kts 255°
2026-04-25 17:32 50.89030 6.95191 6223 ft 267 kts 255°
2026-04-25 17:32 50.88432 6.92390 7057 ft 271 kts 255°
2026-04-25 17:33 50.87827 6.89554 7897 ft 273 kts 255°
2026-04-25 17:33 50.87214 6.86683 8734 ft 276 kts 255°
2026-04-25 17:33 50.86597 6.83791 9560 ft 280 kts 255°
2026-04-25 17:33 50.85970 6.80852 10361 ft 283 kts 255°
2026-04-25 17:34 50.85324 6.77817 10752 ft 302 kts 255°
2026-04-25 17:34 50.84626 6.74526 10964 ft 328 kts 254°
2026-04-25 17:34 50.83869 6.70982 11200 ft 351 kts 254°
2026-04-25 17:34 50.83073 6.67276 11806 ft 361 kts 254°
2026-04-25 17:35 50.82327 6.63475 12525 ft 360 kts 261°
2026-04-25 17:35 50.82173 6.59526 13090 ft 363 kts 274°
2026-04-25 17:35 50.82286 6.55508 13898 ft 367 kts 274°
2026-04-25 17:35 50.82382 6.51468 14723 ft 369 kts 274°
2026-04-25 17:36 50.82459 6.47393 15477 ft 373 kts 273°
2026-04-25 17:36 50.82521 6.43263 16194 ft 378 kts 273°
2026-04-25 17:36 50.82574 6.39090 16897 ft 382 kts 273°
2026-04-25 17:36 50.82620 6.34854 17617 ft 387 kts 272°
2026-04-25 17:37 50.82663 6.30577 18350 ft 391 kts 272°
2026-04-25 17:37 50.82703 6.26252 18996 ft 395 kts 272°
2026-04-25 17:37 50.82741 6.21889 19670 ft 397 kts 272°
2026-04-25 17:37 50.82779 6.17505 20368 ft 400 kts 272°
2026-04-25 17:38 50.82815 6.13166 21035 ft 402 kts 273°
2026-04-25 17:38 50.82839 6.10165 21478 ft 404 kts 272°
2026-04-25 17:38 50.82884 6.04229 22286 ft 410 kts 272°
2026-04-25 17:38 50.82881 5.99716 22898 ft 410 kts 268°
2026-04-25 17:39 50.82215 5.95270 23328 ft 425 kts 249°
2026-04-25 17:39 50.80620 5.91280 23909 ft 435 kts 233°
2026-04-25 17:39 50.78420 5.87955 24501 ft 443 kts 219°
2026-04-25 17:39 50.75734 5.85487 25070 ft 449 kts 211°
2026-04-25 17:40 50.72949 5.83209 25561 ft 453 kts 211°
2026-04-25 17:40 50.70142 5.80909 26059 ft 457 kts 211°
2026-04-25 17:40 50.67325 5.78535 26608 ft 460 kts 212°
2026-04-25 17:40 50.64516 5.76116 27164 ft 462 kts 212°
2026-04-25 17:41 50.61710 5.73606 27701 ft 463 kts 216°
2026-04-25 17:41 50.59100 5.70638 28228 ft 463 kts 223°
2026-04-25 17:41 50.56704 5.67256 28753 ft 463 kts 228°
2026-04-25 17:41 50.54546 5.63506 29267 ft 463 kts 234°
2026-04-25 17:42 50.52511 5.59570 29757 ft 466 kts 234°
2026-04-25 17:42 50.50464 5.55604 30278 ft 467 kts 234°
2026-04-25 17:42 50.48420 5.51663 30905 ft 464 kts 234°
2026-04-25 17:42 50.46378 5.47753 31510 ft 461 kts 234°
2026-04-25 17:43 50.44370 5.43927 32065 ft 460 kts 233°
2026-04-25 17:43 50.42335 5.40068 32586 ft 459 kts 233°
2026-04-25 17:43 50.40299 5.36217 33082 ft 458 kts 233°
2026-04-25 17:43 50.38268 5.32383 33618 ft 457 kts 233°
2026-04-25 17:44 50.36241 5.28565 34120 ft 455 kts 233°
2026-04-25 17:44 50.34219 5.24760 34546 ft 454 kts 233°
2026-04-25 17:44 50.32199 5.20962 34947 ft 454 kts 233°
2026-04-25 17:44 50.30178 5.17166 35196 ft 456 kts 232°
2026-04-25 17:45 50.28136 5.13339 35387 ft 459 kts 232°
2026-04-25 17:45 50.26784 5.10807 35644 ft 458 kts 232°
2026-04-25 17:45 50.24066 5.05724 36251 ft 454 kts 232°
2026-04-25 17:45 50.22049 5.01960 36727 ft 450 kts 232°
2026-04-25 17:46 50.20043 4.98222 37127 ft 449 kts 232°
2026-04-25 17:46 50.18028 4.94468 37178 ft 453 kts 232°
2026-04-25 17:46 50.13980 4.86954 37179 ft 451 kts 232°
2026-04-25 17:47 50.09952 4.79530 37172 ft 447 kts 232°
2026-04-25 17:47 50.05937 4.72155 37174 ft 445 kts 232°
2026-04-25 17:48 49.99929 4.61140 37175 ft 445 kts 231°
2026-04-25 17:49 49.95841 4.53897 37170 ft 447 kts 229°
2026-04-25 17:49 49.91544 4.46890 37172 ft 448 kts 228°
2026-04-25 17:50 49.87255 4.39964 37163 ft 449 kts 228°
2026-04-25 17:50 49.82924 4.32957 37169 ft 450 kts 228°
2026-04-25 17:51 49.78593 4.25946 37164 ft 450 kts 228°
2026-04-25 17:51 49.74269 4.18960 37163 ft 451 kts 228°
2026-04-25 17:52 49.69929 4.11966 37163 ft 450 kts 228°
2026-04-25 17:52 49.65588 4.04991 37151 ft 450 kts 228°
2026-04-25 17:53 49.61244 3.98030 37155 ft 450 kts 228°
2026-04-25 17:53 49.56901 3.91092 37159 ft 449 kts 227°
2026-04-25 17:54 49.52562 3.84178 37156 ft 449 kts 227°
2026-04-25 17:54 49.48215 3.77269 37153 ft 449 kts 227°
2026-04-25 17:55 49.43866 3.70378 37156 ft 449 kts 227°
2026-04-25 17:55 49.39519 3.63508 37164 ft 449 kts 227°
2026-04-25 17:56 49.35163 3.56641 37156 ft 449 kts 227°
2026-04-25 17:56 49.30807 3.49793 37160 ft 449 kts 227°
2026-04-25 17:57 49.26443 3.42951 37160 ft 449 kts 227°
2026-04-25 17:57 49.22076 3.36123 37159 ft 449 kts 227°
2026-04-25 17:58 49.17706 3.29308 37159 ft 449 kts 227°
2026-04-25 17:58 49.13334 3.22509 37156 ft 449 kts 227°
2026-04-25 17:59 49.08955 3.15716 37162 ft 449 kts 227°
2026-04-25 17:59 49.04569 3.08932 37162 ft 449 kts 227°
2026-04-25 18:00 49.00178 3.02157 37154 ft 449 kts 227°
2026-04-25 18:00 48.95791 2.95405 37163 ft 449 kts 226°
2026-04-25 18:01 48.91389 2.88650 37161 ft 449 kts 226°
2026-04-25 18:01 48.86982 2.81900 37148 ft 450 kts 226°
2026-04-25 18:02 48.82618 2.75105 37156 ft 449 kts 230°
2026-04-25 18:02 48.78917 2.67508 37137 ft 448 kts 237°
2026-04-25 18:03 48.75419 2.59687 37137 ft 448 kts 236°
2026-04-25 18:03 48.71895 2.51907 37130 ft 448 kts 236°
2026-04-25 18:04 48.68354 2.44149 37131 ft 448 kts 236°
2026-04-25 18:04 48.64809 2.36404 37129 ft 448 kts 236°
2026-04-25 18:05 48.61264 2.28677 37127 ft 447 kts 236°
2026-04-25 18:05 48.57297 2.21505 37135 ft 448 kts 218°
2026-04-25 18:06 48.51721 2.17300 37133 ft 455 kts 195°
2026-04-25 18:06 48.45498 2.15429 37126 ft 457 kts 193°
2026-04-25 18:07 48.39309 2.13541 37112 ft 457 kts 194°
2026-04-25 18:07 48.33075 2.11538 37121 ft 459 kts 193°
2026-04-25 18:08 48.26695 2.10688 37125 ft 463 kts 181°
2026-04-25 18:08 48.20260 2.11627 37120 ft 467 kts 173°
2026-04-25 18:09 48.13835 2.13081 37123 ft 467 kts 175°
2026-04-25 18:09 48.07368 2.13640 37136 ft 465 kts 180°
2026-04-25 18:10 48.00906 2.13955 37132 ft 466 kts 180°
2026-04-25 18:10 47.94413 2.14301 37128 ft 467 kts 180°
2026-04-25 18:11 47.87922 2.14673 37131 ft 467 kts 180°
2026-04-25 18:11 47.81425 2.15052 37130 ft 467 kts 180°
2026-04-25 18:12 47.74932 2.15430 37105 ft 467 kts 180°
2026-04-25 18:12 47.68451 2.15804 37108 ft 466 kts 180°
2026-04-25 18:13 47.61974 2.16177 37112 ft 465 kts 180°
2026-04-25 18:13 47.55505 2.16548 37097 ft 465 kts 180°
2026-04-25 18:14 47.45850 2.17101 37107 ft 465 kts 180°
2026-04-25 18:14 47.39388 2.17470 37108 ft 465 kts 180°
2026-04-25 18:15 47.32920 2.17839 37098 ft 465 kts 180°
2026-04-25 18:15 47.26449 2.18206 37111 ft 466 kts 180°
2026-04-25 18:16 47.19972 2.18574 37110 ft 466 kts 180°
2026-04-25 18:17 47.10261 2.19489 37107 ft 469 kts 172°
2026-04-25 18:17 47.03918 2.21978 37103 ft 473 kts 161°
2026-04-25 18:18 46.97825 2.25567 37113 ft 474 kts 160°
2026-04-25 18:18 46.91720 2.29201 37103 ft 474 kts 161°
2026-04-25 18:19 46.85602 2.32790 37098 ft 474 kts 161°
2026-04-25 18:19 46.79521 2.36322 37103 ft 474 kts 161°
2026-04-25 18:20 46.73396 2.39864 37123 ft 473 kts 161°
2026-04-25 18:20 46.67279 2.43394 37107 ft 473 kts 161°
2026-04-25 18:21 46.62193 2.46323 37118 ft 473 kts 161°
2026-04-25 18:21 46.56070 2.49843 37101 ft 473 kts 161°
2026-04-25 18:22 46.49938 2.53360 37115 ft 474 kts 161°
2026-04-25 18:22 46.43802 2.56870 37115 ft 474 kts 161°
2026-04-25 18:23 46.37662 2.60373 37114 ft 475 kts 161°
2026-04-25 18:23 46.31509 2.63876 37110 ft 475 kts 161°
2026-04-25 18:24 46.25357 2.67370 37124 ft 476 kts 161°
2026-04-25 18:24 46.19191 2.70863 37117 ft 476 kts 161°
2026-04-25 18:25 46.13023 2.74350 37110 ft 476 kts 161°
2026-04-25 18:25 46.06861 2.77826 37111 ft 476 kts 161°
2026-04-25 18:26 46.00696 2.81295 37118 ft 476 kts 161°
2026-04-25 18:26 45.94509 2.84653 37112 ft 475 kts 162°
2026-04-25 18:27 45.88312 2.87902 37110 ft 475 kts 162°
2026-04-25 18:27 45.82146 2.91155 37111 ft 476 kts 162°
2026-04-25 18:28 45.75874 2.94116 37108 ft 473 kts 171°
2026-04-25 18:28 45.69397 2.95267 37118 ft 468 kts 182°
2026-04-25 18:29 45.59658 2.94951 37126 ft 467 kts 184°
2026-04-25 18:30 45.47225 2.94556 37131 ft 467 kts 184°
2026-04-25 18:30 45.40724 2.94382 37128 ft 467 kts 184°